TimeEST,TemperatureF,Dew PointF,Humidity,Sea Level PressureIn,VisibilityMPH,Wind Direction,Wind SpeedMPH,Gust SpeedMPH,PrecipitationIn,Events,Conditions,WindDirDegrees,DateUTC
12:15 AM,21.2,21.2,100,30.28,10.0,Calm,Calm,-,N/A,,Clear,0,2012-12-07 05:15:00
12:35 AM,23.0,23.0,100,30.28,10.0,Calm,Calm,-,N/A,,Clear,0,2012-12-07 05:35:00
12:55 AM,23.0,23.0,100,30.27,10.0,Calm,Calm,-,N/A,,Clear,0,2012-12-07 05:55:00
1:15 AM,23.0,23.0,100,30.27,10.0,Calm,Calm,-,N/A,,Clear,0,2012-12-07 06:15:00
1:35 AM,23.0,23.0,100,30.27,10.0,Calm,Calm,-,N/A,,Clear,0,2012-12-07 06:35:00
1:55 AM,21.2,21.2,100,30.28,10.0,Calm,Calm,-,N/A,,Clear,0,2012-12-07 06:55:00
2:15 AM,23.0,23.0,100,30.27,10.0,Calm,Calm,-,N/A,,Clear,0,2012-12-07 07:15:00
2:35 AM,21.2,21.2,100,30.26,10.0,Calm,Calm,-,N/A,,Clear,0,2012-12-07 07:35:00
2:55 AM,21.2,21.2,100,30.25,10.0,Calm,Calm,-,N/A,,Clear,0,2012-12-07 07:55:00
3:15 AM,21.2,21.2,100,30.25,10.0,Calm,Calm,-,N/A,,Clear,0,2012-12-07 08:15:00
3:35 AM,21.2,21.2,100,30.25,10.0,Calm,Calm,-,N/A,,Clear,0,2012-12-07 08:35:00
3:55 AM,23.0,23.0,100,30.24,10.0,Calm,Calm,-,N/A,,Clear,0,2012-12-07 08:55:00
4:15 AM,23.0,23.0,100,30.23,10.0,Calm,Calm,-,N/A,,Scattered Clouds,0,2012-12-07 09:15:00
4:35 AM,23.0,23.0,100,30.23,10.0,Calm,Calm,-,N/A,,Mostly Cloudy,0,2012-12-07 09:35:00
4:55 AM,23.0,23.0,100,30.22,10.0,Calm,Calm,-,N/A,,Scattered Clouds,0,2012-12-07 09:55:00
5:15 AM,23.0,23.0,100,30.22,10.0,Calm,Calm,-,N/A,,Scattered Clouds,0,2012-12-07 10:15:00
5:35 AM,23.0,23.0,100,30.21,10.0,Calm,Calm,-,N/A,,Scattered Clouds,0,2012-12-07 10:35:00
6:45 AM,24.8,23.0,93,30.22,10.0,Calm,Calm,-,N/A,,Mostly Cloudy,0,2012-12-07 11:45:00
7:45 AM,26.6,24.8,93,30.22,10.0,Calm,Calm,-,N/A,,Overcast,0,2012-12-07 12:45:00
8:45 AM,28.4,26.6,93,30.22,10.0,Calm,Calm,-,N/A,,Overcast,0,2012-12-07 13:45:00
9:45 AM,32.0,28.4,87,30.21,10.0,Calm,Calm,-,N/A,,Overcast,0,2012-12-07 14:45:00
10:45 AM,32.0,30.2,93,30.19,10.0,Calm,Calm,-,N/A,,Overcast,0,2012-12-07 15:45:00
11:45 AM,33.8,30.2,87,30.17,2.5,Calm,Calm,-,N/A,,Overcast,0,2012-12-07 16:45:00
12:45 PM,33.8,32.0,93,30.14,4.0,Calm,Calm,-,N/A,,Overcast,0,2012-12-07 17:45:00
1:45 PM,35.6,33.8,93,30.12,4.0,Calm,Calm,-,N/A,,Overcast,0,2012-12-07 18:45:00
2:00 PM,35.6,33.8,93,30.11,2.0,Calm,Calm,-,N/A,,Overcast,0,2012-12-07 19:00:00
2:45 PM,35.6,35.6,100,30.11,1.8,Calm,Calm,-,N/A,,Overcast,0,2012-12-07 19:45:00
3:45 PM,37.4,35.6,93,30.10,1.0,Calm,Calm,-,N/A,,Heavy Drizzle,0,2012-12-07 20:45:00
4:15 PM,37.4,35.6,93,30.10,1.0,Calm,Calm,-,N/A,,Light Drizzle,0,2012-12-07 21:15:00
4:45 PM,37.4,35.6,93,30.09,1.0,Calm,Calm,-,N/A,,Overcast,0,2012-12-07 21:45:00
5:45 PM,37.4,35.6,93,30.09,2.0,Calm,Calm,-,N/A,,Overcast,0,2012-12-07 22:45:00
6:45 PM,37.4,35.6,93,30.08,2.0,Calm,Calm,-,N/A,,Overcast,0,2012-12-07 23:45:00
7:45 PM,37.4,37.4,100,30.09,2.0,Calm,Calm,-,N/A,,Overcast,0,2012-12-08 00:45:00
8:45 PM,37.4,37.4,100,30.09,2.0,Calm,Calm,-,N/A,,Overcast,0,2012-12-08 01:45:00
9:45 PM,37.4,37.4,100,30.07,2.0,Calm,Calm,-,N/A,,Overcast,0,2012-12-08 02:45:00
9:55 PM,37.4,37.4,100,30.05,2.5,Calm,Calm,-,N/A,,Overcast,0,2012-12-08 02:55:00
10:15 PM,37.4,37.4,100,30.05,2.0,Calm,Calm,-,N/A,,Overcast,0,2012-12-08 03:15:00
10:35 PM,37.4,37.4,100,30.04,1.8,Calm,Calm,-,N/A,,Drizzle,0,2012-12-08 03:35:00
10:55 PM,37.4,37.4,100,30.04,2.0,Calm,Calm,-,N/A,Rain,Rain,0,2012-12-08 03:55:00
11:15 PM,37.4,37.4,100,30.03,2.0,Calm,Calm,-,N/A,Rain,Light Rain,0,2012-12-08 04:15:00
11:35 PM,37.4,37.4,100,30.03,2.0,Calm,Calm,-,N/A,,Drizzle,0,2012-12-08 04:35:00
11:55 PM,39.2,39.2,100,30.02,3.0,Calm,Calm,-,N/A,Rain,Rain,0,2012-12-08 04:55:00